Location: Gage
(33.9753°N, 118.1267°W)
Time: 21:41:38
(UTC+00:00)

BlueWalker 3 - Visible Passes

Search period start: 04 October 2024 00:00
Search period end: 14 October 2024 00:00
Orbit: 473 x 486 km, 53.2° (Epoch: 04 October)

Date Brightness Start Highest point End Pass type
(mag) Time Alt. Az. Time Alt. Az. Time Alt. Az.
04 Oct 3.4 11:43:56 33° E 11:43:56 33° E 11:46:32 10° ENE visible
04 Oct 3.4 13:18:19 10° W 13:21:09 20° NW 13:24:00 10° NNE visible
05 Oct 4.8 11:17:30 15° ENE 11:17:30 15° ENE 11:18:20 10° ENE visible
05 Oct 3.3 12:51:44 19° WNW 12:53:00 23° NW 12:55:59 10° NNE visible
06 Oct 3.2 12:25:07 25° NNW 12:25:07 25° NNW 12:27:55 10° NNE visible
07 Oct 3.9 11:58:22 19° N 11:58:22 19° N 11:59:48 10° NNE visible
08 Oct 4.9 11:31:29 11° NNE 11:31:29 11° NNE 11:31:39 10° NNE visible
